Location: Arthez
(43.0833°N, 0.2500°W)
Time: 01:05:01
(UTC+00:00)

Cosmos 1300 - Pass Details

Date: 23 October 2021
Orbit: 509 x 512 km, 82.5° (Epoch: 06 December)

Event Time Altitude Azimuth Distance (km) Brightness Sun altitude
Rises 18:08:12 0° 183° (S) 2,610 6.4 -12.1°
Reaches altitude 10° 18:10:19 10° 182° (S) 1,729 5.4 -12.5°
Maximum altitude 18:14:06 78° 96° (E) 530 2.6 -13.2°
Drops below altitude 10° 18:17:55 10° 11° (N) 1,744 5.2 -13.9°
Sets 18:20:03 0° 10° (N) 2,635 6.2 -14.3°
